Morgantown, WV

1:04 AM EDT on May 01, 2017 (GMT -0400)
Morgantown Municipal-Hart

Weather History for KMGW - August, 2014

Change the Weather History Date:

Monday, August 11, 2014

  Actual Average Record
Temperature  
Mean Temperature 70 °F 72 °F  
Max Temperature 73 °F 83 °F 95 °F (1988)
Min Temperature 67 °F 62 °F 49 °F (1972)
Degree Days  
Heating Degree Days 0 0  
Month to date heating degree days 0 0  
Since 1 June heating degree days 5 34  
Since 1 July heating degree days 3 3  
Cooling Degree Days 5 8  
Month to date cooling degree days 85 88  
Year to date cooling degree days 672 572  
Since 1 June cooling degree days 563 505  
Growing Degree Days 20 (Base 50)    
Moisture  
Dew Point 62 °F    
Average Humidity 77    
Maximum Humidity 87    
Minimum Humidity 66    
Precipitation  
Precipitation 1.07 in 0.11 in 1.73 in (1980)
Month to date precipitation 1.84 1.31  
Year to date precipitation 27.29 27.23  
Sea Level Pressure  
Sea Level Pressure 30.01 in    
Wind  
Wind Speed 7 mph (SSE)    
Max Wind Speed 20 mph    
Max Gust Speed 25 mph    
Visibility 7 miles    
Events Rain    
T = Trace of Precipitation, MM = Missing Value Source: NWS Daily Summary

Daily Weather History Graph

Daily Weather History Graph

Search for Another Location

Airport or City:

Trip Planner

Search our weather history database for the weather conditions in past years. The results will help you decide how hot, cold, wet, or windy it might be!

Date:

Astronomy

Aug. 11, 2014 Rise Set
Actual Time 6:28 AM EDT 8:20 PM EDT
Civil Twilight 5:58 AM EDT 8:49 PM EDT
Nautical Twilight 5:23 AM EDT 9:25 PM EDT
Astronomical Twilight 4:45 AM EDT 10:03 PM EDT
Moon 8:48 PM EDT (8/11) 7:30 AM EDT (8/11)
Length of Visible Light 14h 51m
Length of Day
13h 52m
Full, 99% of the Moon is Illuminated
Aug 11
Full
Aug 17
Last Quarter
Aug 25
New
Sep 2
First Quarter
Sep 8
Full

Hourly Weather History & Observations

Time (EDT) Temp. Dew Point Humidity Pressure Visibility Wind Dir Wind Speed Gust Speed Precip Events Conditions
12:53 AM 71.1 °F 61.0 °F 70% 30.07 in 10.0 mi SSE 5.8 mph - N/A   Overcast
1:53 AM 70.0 °F 60.1 °F 71% 30.06 in 10.0 mi SSE 5.8 mph - N/A   Clear
2:53 AM 71.1 °F 60.1 °F 68% 30.04 in 10.0 mi SSE 5.8 mph - N/A   Overcast
3:53 AM 71.1 °F 60.1 °F 68% 30.04 in 10.0 mi South 3.5 mph - N/A   Overcast
4:53 AM 68.0 °F 63.0 °F 84% 30.03 in 4.0 mi SE 6.9 mph - 0.06 in Rain Rain
5:02 AM 66.9 °F 63.0 °F 87% 30.05 in 2.5 mi East 8.1 mph - 0.07 in Rain Heavy Rain
5:12 AM 68.0 °F 63.0 °F 84% 30.05 in 6.0 mi ESE 6.9 mph - 0.08 in Rain Light Rain
5:53 AM 70.0 °F 62.1 °F 76% 30.01 in 10.0 mi Calm Calm - 0.08 in   Overcast
6:53 AM 69.1 °F 63.0 °F 81% 30.01 in 9.0 mi Calm Calm - N/A   Overcast
6:58 AM 69.1 °F 63.0 °F 81% 30.04 in 10.0 mi Calm Calm - N/A   Overcast
7:53 AM 71.1 °F 61.0 °F 70% 30.01 in 10.0 mi ESE 3.5 mph - N/A   Overcast
8:53 AM 71.1 °F 62.1 °F 73% 30.02 in 10.0 mi South 6.9 mph - N/A   Overcast
9:07 AM 71.1 °F 63.0 °F 75% 30.05 in 4.0 mi SSE 8.1 mph - 0.01 in Rain Rain
9:53 AM 70.0 °F 63.0 °F 78% 30.03 in 8.0 mi SSE 4.6 mph - 0.10 in Rain Light Rain
10:53 AM 69.1 °F 63.0 °F 81% 30.03 in 4.0 mi SE 5.8 mph - 0.03 in Rain Rain
11:16 AM 69.1 °F 63.0 °F 81% 30.06 in 1.8 mi Variable 3.5 mph - 0.08 in Rain Rain
11:26 AM 69.1 °F 63.0 °F 81% 30.06 in 3.0 mi SSE 4.6 mph - 0.09 in Rain Light Rain
11:53 AM 68.0 °F 64.0 °F 87% 30.04 in 2.0 mi South 4.6 mph - 0.15 in Rain Rain
12:00 PM 68.0 °F 63.0 °F 84% 30.05 in 1.8 mi SSE 6.9 mph - 0.04 in Rain Rain
12:09 PM 69.1 °F 63.0 °F 81% 30.05 in 3.0 mi SE 11.5 mph - 0.06 in Rain Rain
12:24 PM 69.1 °F 63.0 °F 81% 30.04 in 9.0 mi SSE 12.7 mph 17.3 mph 0.06 in Rain Light Rain
12:53 PM 69.1 °F 62.1 °F 78% 30.01 in 10.0 mi Variable 4.6 mph - 0.06 in   Overcast
1:15 PM 69.1 °F 63.0 °F 81% 30.04 in 1.5 mi Variable 5.8 mph - 0.14 in Rain Heavy Rain
1:47 PM 68.0 °F 62.6 °F 83% 30.05 in 3.0 mi SSE 11.5 mph - 0.37 in Rain Light Rain
1:53 PM 68.0 °F 63.0 °F 84% 30.02 in 3.0 mi South 9.2 mph - 0.41 in Rain Rain
1:56 PM 68.0 °F 63.0 °F 84% 30.04 in 1.8 mi SSE 10.4 mph - 0.03 in Rain Heavy Rain
2:13 PM 69.1 °F 63.0 °F 81% 30.03 in 4.0 mi SSE 11.5 mph - 0.06 in Rain Light Rain
2:53 PM 70.0 °F 63.0 °F 78% 29.99 in 10.0 mi SSE 13.8 mph 21.9 mph 0.07 in   Overcast
3:53 PM 73.0 °F 62.1 °F 68% 29.96 in 10.0 mi ESE 13.8 mph - N/A   Mostly Cloudy
4:53 PM 72.0 °F 61.0 °F 68% 29.95 in 10.0 mi SE 13.8 mph 20.7 mph N/A   Mostly Cloudy
5:53 PM 71.1 °F 59.0 °F 66% 29.94 in 10.0 mi SSE 10.4 mph - N/A   Scattered Clouds
6:53 PM 71.1 °F 59.0 °F 66% 29.92 in 10.0 mi SE 9.2 mph - N/A   Mostly Cloudy
7:53 PM 70.0 °F 59.0 °F 68% 29.91 in 10.0 mi SSE 8.1 mph 19.6 mph N/A   Overcast
8:53 PM 71.1 °F 59.0 °F 66% 29.91 in 10.0 mi SSE 9.2 mph - N/A   Overcast
9:53 PM 71.1 °F 60.1 °F 68% 29.90 in 10.0 mi SSE 9.2 mph - N/A   Clear
10:53 PM 72.0 °F 60.1 °F 66% 29.89 in 10.0 mi SSE 9.2 mph - N/A   Overcast
11:53 PM 68.0 °F 63.0 °F 84% 29.90 in 3.0 mi SSE 8.1 mph - 0.09 in Rain Rain